Time,TemperatureF,DewpointF,PressureIn,WindDirection,WindDirectionDegrees,WindSpeedMPH,WindSpeedGustMPH,Humidity,HourlyPrecipIn,Conditions,Clouds,dailyrainin,SoftwareType,DateUTC
2013-03-01 00:04:00,28.1,22.0,25.79,NNW,332,10.0,12.0,79,0.00,,,0.00,weatherlink.com 1.10,2013-03-01 07:04:00,
2013-03-01 00:19:00,29.1,23.0,25.79,NNW,327,12.0,14.0,77,0.00,,,0.00,weatherlink.com 1.10,2013-03-01 07:19:00,
2013-03-01 00:34:00,29.7,23.0,25.79,NNW,330,11.0,15.0,77,0.00,,,0.00,weatherlink.com 1.10,2013-03-01 07:34:00,
2013-03-01 00:49:00,29.5,23.0,25.79,NW,326,16.0,18.0,77,0.00,,,0.00,weatherlink.com 1.10,2013-03-01 07:49:00,
2013-03-01 01:04:00,28.9,23.0,25.79,NW,326,12.0,17.0,77,0.00,,,0.00,weatherlink.com 1.10,2013-03-01 08:04:00,
2013-03-01 01:19:00,28.0,22.0,25.79,NW,323,11.0,16.0,78,0.00,,,0.00,weatherlink.com 1.10,2013-03-01 08:19:00,
2013-03-01 01:34:00,26.9,22.0,25.79,NW,311,10.0,12.0,81,0.00,,,0.00,weatherlink.com 1.10,2013-03-01 08:34:00,
2013-03-01 01:49:00,27.0,22.0,25.79,NW,307,12.0,16.0,82,0.00,,,0.00,weatherlink.com 1.10,2013-03-01 08:49:00,
2013-03-01 02:04:00,26.5,22.0,25.78,NW,311,12.0,15.0,82,0.00,,,0.00,weatherlink.com 1.10,2013-03-01 09:04:00,
2013-03-01 02:19:00,26.1,22.0,25.79,NW,322,10.0,15.0,83,0.00,,,0.00,weatherlink.com 1.10,2013-03-01 09:19:00,
2013-03-01 02:34:00,25.8,22.0,25.79,NW,306,9.0,14.0,84,0.00,,,0.00,weatherlink.com 1.10,2013-03-01 09:34:00,
2013-03-01 02:49:00,27.1,22.0,25.78,NW,314,11.0,15.0,82,0.00,,,0.00,weatherlink.com 1.10,2013-03-01 09:49:00,
2013-03-01 03:05:00,27.5,22.0,25.78,NW,322,13.0,16.0,80,0.00,,,0.00,weatherlink.com 1.10,2013-03-01 10:05:00,
2013-03-01 03:19:00,27.1,22.0,25.78,NW,309,10.0,15.0,80,0.00,,,0.00,weatherlink.com 1.10,2013-03-01 10:19:00,
2013-03-01 03:34:00,26.9,22.0,25.79,NW,324,9.0,13.0,81,0.00,,,0.00,weatherlink.com 1.10,2013-03-01 10:34:00,
2013-03-01 03:50:00,27.2,22.0,25.79,NW,307,9.0,12.0,80,0.00,,,0.00,weatherlink.com 1.10,2013-03-01 10:50:00,
2013-03-01 04:05:00,27.3,22.0,25.79,NW,322,11.0,12.0,80,0.00,,,0.00,weatherlink.com 1.10,2013-03-01 11:05:00,
2013-03-01 04:20:00,27.8,22.0,25.79,NNW,329,11.0,15.0,80,0.00,,,0.00,weatherlink.com 1.10,2013-03-01 11:20:00,
2013-03-01 04:35:00,27.9,22.0,25.80,NW,314,11.0,15.0,79,0.00,,,0.00,weatherlink.com 1.10,2013-03-01 11:35:00,
2013-03-01 04:50:00,27.3,21.0,25.80,NW,317,9.0,15.0,78,0.00,,,0.00,weatherlink.com 1.10,2013-03-01 11:50:00,
2013-03-01 05:05:00,26.4,21.0,25.80,NW,315,8.0,12.0,79,0.00,,,0.00,weatherlink.com 1.10,2013-03-01 12:05:00,
2013-03-01 05:20:00,25.5,20.0,25.80,NW,314,6.0,11.0,80,0.00,,,0.00,weatherlink.com 1.10,2013-03-01 12:20:00,
2013-03-01 05:35:00,24.0,19.0,25.80,NW,309,7.0,9.0,81,0.00,,,0.00,weatherlink.com 1.10,2013-03-01 12:35:00,
2013-03-01 05:50:00,22.9,18.0,25.80,NW,306,6.0,8.0,82,0.00,,,0.00,weatherlink.com 1.10,2013-03-01 12:50:00,
2013-03-01 06:05:00,22.2,18.0,25.80,NW,316,5.0,7.0,82,0.00,,,0.00,weatherlink.com 1.10,2013-03-01 13:05:00,
2013-03-01 06:20:00,21.5,17.0,25.79,NNW,328,5.0,8.0,82,0.00,,,0.00,weatherlink.com 1.10,2013-03-01 13:20:00,
2013-03-01 06:35:00,21.7,17.0,25.80,NW,323,7.0,11.0,81,0.00,,,0.00,weatherlink.com 1.10,2013-03-01 13:35:00,
2013-03-01 06:50:00,21.4,16.0,25.80,NNW,327,6.0,9.0,81,0.00,,,0.00,weatherlink.com 1.10,2013-03-01 13:50:00,
2013-03-01 07:05:00,22.5,17.0,25.81,NNW,327,6.0,9.0,80,0.00,,,0.00,weatherlink.com 1.10,2013-03-01 14:05:00,
2013-03-01 07:20:00,24.8,18.0,25.82,NNW,330,4.0,8.0,76,0.00,,,0.00,weatherlink.com 1.10,2013-03-01 14:20:00,
2013-03-01 07:35:00,26.2,19.0,25.83,North,352,5.0,9.0,73,0.00,,,0.00,weatherlink.com 1.10,2013-03-01 14:35:00,
2013-03-01 07:50:00,27.1,19.0,25.83,North,8,10.0,11.0,70,0.00,,,0.00,weatherlink.com 1.10,2013-03-01 14:50:00,
2013-03-01 08:05:00,26.6,18.0,25.83,North,11,11.0,11.0,71,0.00,,,0.00,weatherlink.com 1.10,2013-03-01 15:05:00,
2013-03-01 08:20:00,26.4,19.0,25.83,NNE,23,8.0,11.0,72,0.00,,,0.00,weatherlink.com 1.10,2013-03-01 15:20:00,
2013-03-01 08:35:00,26.6,19.0,25.84,NNE,19,10.0,12.0,72,0.00,,,0.00,weatherlink.com 1.10,2013-03-01 15:35:00,
2013-03-01 08:50:00,27.3,19.0,25.84,North,356,10.0,12.0,71,0.00,,,0.00,weatherlink.com 1.10,2013-03-01 15:50:00,
2013-03-01 09:05:00,27.6,19.0,25.84,NNE,25,10.0,14.0,71,0.00,,,0.00,weatherlink.com 1.10,2013-03-01 16:05:00,
2013-03-01 09:20:00,27.5,20.0,25.84,NNW,347,9.0,13.0,73,0.00,,,0.00,weatherlink.com 1.10,2013-03-01 16:20:00,
2013-03-01 09:35:00,29.2,21.0,25.84,NNW,332,7.0,11.0,71,0.00,,,0.00,weatherlink.com 1.10,2013-03-01 16:35:00,
2013-03-01 09:50:00,32.1,22.0,25.84,NNW,342,13.0,15.0,67,0.00,,,0.00,weatherlink.com 1.10,2013-03-01 16:50:00,
2013-03-01 10:05:00,32.8,21.0,25.84,NW,324,12.0,19.0,61,0.00,,,0.00,weatherlink.com 1.10,2013-03-01 17:05:00,
2013-03-01 10:20:00,33.3,21.0,25.84,NNW,345,13.0,18.0,62,0.00,,,0.00,weatherlink.com 1.10,2013-03-01 17:20:00,
2013-03-01 10:35:00,34.4,22.0,25.84,NNW,339,12.0,17.0,62,0.00,,,0.00,weatherlink.com 1.10,2013-03-01 17:35:00,
2013-03-01 10:50:00,35.2,22.0,25.84,NNW,339,10.0,15.0,60,0.00,,,0.00,weatherlink.com 1.10,2013-03-01 17:50:00,
2013-03-01 11:06:00,35.8,22.0,25.84,NNW,333,7.0,14.0,58,0.00,,,0.00,weatherlink.com 1.10,2013-03-01 18:06:00,
2013-03-01 11:21:00,36.8,24.0,25.84,North,356,11.0,13.0,59,0.00,,,0.00,weatherlink.com 1.10,2013-03-01 18:21:00,
2013-03-01 11:36:00,37.5,24.0,25.83,NW,323,7.0,14.0,58,0.00,,,0.00,weatherlink.com 1.10,2013-03-01 18:36:00,
2013-03-01 11:51:00,38.2,23.0,25.82,NNW,335,7.0,14.0,54,0.00,,,0.00,weatherlink.com 1.10,2013-03-01 18:51:00,
2013-03-01 12:06:00,38.7,24.0,25.82,North,352,6.0,9.0,55,0.00,,,0.00,weatherlink.com 1.10,2013-03-01 19:06:00,
2013-03-01 12:21:00,39.6,22.0,25.81,NNW,345,6.0,10.0,50,0.00,,,0.00,weatherlink.com 1.10,2013-03-01 19:21:00,
2013-03-01 12:36:00,40.3,24.0,25.80,NW,316,10.0,12.0,53,0.00,,,0.00,weatherlink.com 1.10,2013-03-01 19:36:00,
2013-03-01 12:51:00,40.9,22.0,25.80,WNW,301,8.0,14.0,48,0.00,,,0.00,weatherlink.com 1.10,2013-03-01 19:51:00,
2013-03-01 13:07:00,41.3,25.0,25.79,NW,326,14.0,28.0,53,0.00,,,0.00,weatherlink.com 1.10,2013-03-01 20:07:00,
2013-03-01 13:21:00,41.6,26.0,25.79,NNW,342,24.0,28.0,54,0.00,,,0.00,weatherlink.com 1.10,2013-03-01 20:21:00,
2013-03-01 13:36:00,40.9,26.0,25.79,NW,314,16.0,28.0,55,0.00,,,0.00,weatherlink.com 1.10,2013-03-01 20:36:00,
2013-03-01 13:51:00,41.5,26.0,25.79,NW,321,20.0,25.0,55,0.00,,,0.00,weatherlink.com 1.10,2013-03-01 20:51:00,
2013-03-01 14:06:00,40.9,27.0,25.79,NNW,332,16.0,27.0,58,0.00,,,0.00,weatherlink.com 1.10,2013-03-01 21:06:00,
2013-03-01 14:21:00,40.9,27.0,25.79,NW,320,17.0,26.0,57,0.00,,,0.00,weatherlink.com 1.10,2013-03-01 21:21:00,
2013-03-01 14:36:00,40.9,28.0,25.79,NNW,328,18.0,27.0,60,0.00,,,0.00,weatherlink.com 1.10,2013-03-01 21:36:00,
2013-03-01 14:51:00,40.7,27.0,25.79,North,352,17.0,26.0,58,0.00,,,0.00,weatherlink.com 1.10,2013-03-01 21:51:00,
2013-03-01 15:06:00,39.7,27.0,25.80,NW,322,12.0,24.0,60,0.00,,,0.00,weatherlink.com 1.10,2013-03-01 22:06:00,
2013-03-01 15:21:00,39.7,29.0,25.80,NNW,327,14.0,17.0,65,0.00,,,0.00,weatherlink.com 1.10,2013-03-01 22:21:00,
2013-03-01 15:36:00,39.6,28.0,25.80,NNW,332,9.0,17.0,63,0.00,,,0.00,weatherlink.com 1.10,2013-03-01 22:36:00,
2013-03-01 15:51:00,39.5,29.0,25.80,NW,312,9.0,14.0,65,0.00,,,0.00,weatherlink.com 1.10,2013-03-01 22:51:00,
2013-03-01 16:06:00,39.5,28.0,25.80,NW,323,7.0,13.0,63,0.00,,,0.00,weatherlink.com 1.10,2013-03-01 23:06:00,
2013-03-01 16:21:00,39.3,28.0,25.80,NNW,327,6.0,12.0,65,0.00,,,0.00,weatherlink.com 1.10,2013-03-01 23:21:00,
2013-03-01 16:36:00,38.5,28.0,25.80,NW,319,3.0,7.0,67,0.00,,,0.00,weatherlink.com 1.10,2013-03-01 23:36:00,
2013-03-01 16:51:00,38.5,29.0,25.81,NW,319,6.0,8.0,68,0.00,,,0.00,weatherlink.com 1.10,2013-03-01 23:51:00,
2013-03-01 17:06:00,37.8,30.0,25.82,West,259,2.0,3.0,72,0.00,,,0.00,weatherlink.com 1.10,2013-03-02 00:06:00,
2013-03-01 17:21:00,37.2,30.0,25.82,NW,307,3.0,3.0,74,0.00,,,0.00,weatherlink.com 1.10,2013-03-02 00:21:00,
2013-03-01 17:36:00,36.8,29.0,25.82,WNW,290,2.0,3.0,73,0.00,,,0.00,weatherlink.com 1.10,2013-03-02 00:36:00,
2013-03-01 17:51:00,36.7,29.0,25.82,West,264,1.0,2.0,73,0.00,,,0.00,weatherlink.com 1.10,2013-03-02 00:51:00,
2013-03-01 18:06:00,35.7,29.0,25.82,West,270,2.0,3.0,76,0.00,,,0.00,weatherlink.com 1.10,2013-03-02 01:06:00,
2013-03-01 18:21:00,35.8,29.0,25.82,WNW,291,3.0,5.0,75,0.00,,,0.00,weatherlink.com 1.10,2013-03-02 01:21:00,
2013-03-01 18:36:00,35.5,28.0,25.82,WNW,295,2.0,4.0,75,0.00,,,0.00,weatherlink.com 1.10,2013-03-02 01:36:00,
2013-03-01 18:51:00,35.2,28.0,25.83,West,273,2.0,3.0,76,0.00,,,0.00,weatherlink.com 1.10,2013-03-02 01:51:00,
2013-03-01 19:06:00,35.1,28.0,25.83,West,274,3.0,5.0,76,0.00,,,0.00,weatherlink.com 1.10,2013-03-02 02:06:00,
2013-03-01 19:21:00,35.5,28.0,25.82,West,269,2.0,7.0,75,0.00,,,0.00,weatherlink.com 1.10,2013-03-02 02:21:00,
2013-03-01 19:36:00,35.3,28.0,25.82,WNW,294,3.0,6.0,76,0.00,,,0.00,weatherlink.com 1.10,2013-03-02 02:36:00,
2013-03-01 19:51:00,34.5,28.0,25.82,WSW,243,2.0,4.0,77,0.00,,,0.00,weatherlink.com 1.10,2013-03-02 02:51:00,
2013-03-01 20:06:00,34.1,28.0,25.82,WNW,286,5.0,6.0,79,0.00,,,0.00,weatherlink.com 1.10,2013-03-02 03:06:00,
2013-03-01 20:21:00,34.6,28.0,25.82,WNW,297,3.0,7.0,78,0.00,,,0.00,weatherlink.com 1.10,2013-03-02 03:21:00,
2013-03-01 20:36:00,33.9,28.0,25.82,WSW,257,5.0,5.0,79,0.00,,,0.00,weatherlink.com 1.10,2013-03-02 03:36:00,
2013-03-01 20:51:00,33.9,28.0,25.82,WNW,285,3.0,6.0,80,0.00,,,0.00,weatherlink.com 1.10,2013-03-02 03:51:00,
2013-03-01 21:06:00,33.7,28.0,25.82,WNW,284,2.0,3.0,81,0.00,,,0.00,weatherlink.com 1.10,2013-03-02 04:06:00,
2013-03-01 21:21:00,34.2,29.0,25.81,WNW,290,4.0,6.0,80,0.00,,,0.00,weatherlink.com 1.10,2013-03-02 04:21:00,
2013-03-01 21:36:00,34.9,29.0,25.81,WSW,239,6.0,7.0,78,0.00,,,0.00,weatherlink.com 1.10,2013-03-02 04:36:00,
2013-03-01 21:51:00,35.3,29.0,25.81,WNW,302,5.0,8.0,77,0.00,,,0.00,weatherlink.com 1.10,2013-03-02 04:51:00,
2013-03-01 22:06:00,35.6,29.0,25.81,West,276,6.0,8.0,77,0.00,,,0.00,weatherlink.com 1.10,2013-03-02 05:06:00,
2013-03-01 22:21:00,35.4,30.0,25.81,West,273,7.0,11.0,79,0.00,,,0.00,weatherlink.com 1.10,2013-03-02 05:21:00,
2013-03-01 22:36:00,35.6,29.0,25.80,SSW,208,7.0,9.0,77,0.00,,,0.00,weatherlink.com 1.10,2013-03-02 05:36:00,
2013-03-01 22:51:00,35.4,29.0,25.80,WNW,283,5.0,8.0,78,0.00,,,0.00,weatherlink.com 1.10,2013-03-02 05:51:00,
2013-03-01 23:06:00,35.5,29.0,25.80,NW,308,5.0,10.0,78,0.00,,,0.00,weatherlink.com 1.10,2013-03-02 06:06:00,
2013-03-01 23:21:00,35.7,29.0,25.80,WNW,301,9.0,11.0,78,0.00,,,0.00,weatherlink.com 1.10,2013-03-02 06:21:00,
2013-03-01 23:36:00,35.7,29.0,25.80,WNW,300,7.0,11.0,78,0.00,,,0.00,weatherlink.com 1.10,2013-03-02 06:36:00,
2013-03-01 23:51:00,35.5,30.0,25.80,WNW,302,6.0,8.0,79,0.00,,,0.00,weatherlink.com 1.10,2013-03-02 06:51:00,